Location: Rancho Santa Fe Post Office
(33.0184°N, 117.2026°W)
Time: 04:20:24
(UTC+00:00)

Cosmos 1484 Rocket - Pass Details

Date: 10 September 2024
Orbit: 473 x 510 km, 97.6° (Epoch: 09 October)

Event Time Altitude Azimuth Distance (km) Brightness Sun altitude
Rises 12:34:22 0° 6° (N) 2,616 6.6 -12.2°
Reaches altitude 10° 12:36:28 10° 2° (N) 1,732 5.6 -11.8°
Maximum altitude 12:40:08 56° 284° (WNW) 616 2.7 -11.0°
Drops below altitude 10° 12:43:48 10° 206° (SSW) 1,734 5.0 -10.3°
Sets 12:45:55 0° 202° (SSW) 2,619 5.9 -9.9°
